Location: Unspecified
(42.3650°N, 71.1030°W)
Time: 12:43:57
(UTC+00:00)

Courier 1B - Pass Details

Date: 02 July 2024
Orbit: 962 x 1209 km, 28.3° (Epoch: 25 July)

Event Time Altitude Azimuth Distance (km) Brightness Sun altitude
Rises 05:24:40 0° 253° (WSW) 3,696 - -24.1°
Reaches altitude 10° 05:28:18 10° 234° (SW) 2,783 - -24.0°
Maximum altitude 05:32:24 17° 196° (SSW) 2,360 - -23.9°
Drops below altitude 10° 05:36:37 10° 159° (SSE) 2,884 - -23.7°
Sets 05:40:30 0° 140° (SE) 3,891 - -23.5°
